Year,Month,Day,Hour,Minute,Value (Times are PST for temperature in C)
2015,02,15,00,00,3.50
2015,02,15,00,01,3.50
2015,02,15,00,02,3.50
2015,02,15,00,03,3.50
2015,02,15,00,04,3.50
2015,02,15,00,05,3.50
2015,02,15,00,06,3.50
2015,02,15,00,07,3.50
2015,02,15,00,08,3.50
2015,02,15,00,09,3.50
2015,02,15,00,10,3.60
2015,02,15,00,11,3.60
2015,02,15,00,12,3.60
2015,02,15,00,13,3.60
2015,02,15,00,14,3.70
2015,02,15,00,15,3.70
2015,02,15,00,16,3.80
2015,02,15,00,17,3.80
2015,02,15,00,18,3.80
2015,02,15,00,19,3.80
2015,02,15,00,20,3.90
2015,02,15,00,21,3.90
2015,02,15,00,22,3.90
2015,02,15,00,23,3.90
2015,02,15,00,24,3.90
2015,02,15,00,25,3.90
2015,02,15,00,26,3.90
2015,02,15,00,27,3.80
2015,02,15,00,28,3.60
2015,02,15,00,29,3.50
2015,02,15,00,30,3.40
2015,02,15,00,31,3.30
2015,02,15,00,32,3.20
2015,02,15,00,33,3.10
2015,02,15,00,34,3.00
2015,02,15,00,35,2.90
2015,02,15,00,36,2.90
2015,02,15,00,37,2.90
2015,02,15,00,38,2.90
2015,02,15,00,39,2.80
2015,02,15,00,40,2.80
2015,02,15,00,41,2.90
2015,02,15,00,42,2.90
2015,02,15,00,43,3.00
2015,02,15,00,44,3.00
2015,02,15,00,45,3.00
2015,02,15,00,46,3.00
2015,02,15,00,47,3.10
2015,02,15,00,48,3.10
2015,02,15,00,49,3.10
2015,02,15,00,50,3.10
2015,02,15,00,51,3.10
2015,02,15,00,52,3.10
2015,02,15,00,53,3.00
2015,02,15,00,54,3.00
2015,02,15,00,55,3.00
2015,02,15,00,56,3.00
2015,02,15,00,57,3.10
2015,02,15,00,58,3.10
2015,02,15,00,59,3.10
2015,02,15,01,00,3.10
2015,02,15,01,01,3.20
2015,02,15,01,02,3.20
2015,02,15,01,03,3.20
2015,02,15,01,04,3.30
2015,02,15,01,05,3.30
2015,02,15,01,06,3.30
2015,02,15,01,07,3.40
2015,02,15,01,08,3.40
2015,02,15,01,09,3.40
2015,02,15,01,10,3.50
2015,02,15,01,11,3.50
2015,02,15,01,12,3.40
2015,02,15,01,13,3.40
2015,02,15,01,14,3.40
2015,02,15,01,15,3.40
2015,02,15,01,16,3.40
2015,02,15,01,17,3.40
2015,02,15,01,18,3.40
2015,02,15,01,19,3.30
2015,02,15,01,20,3.30
2015,02,15,01,21,3.30
2015,02,15,01,22,3.30
2015,02,15,01,23,3.30
2015,02,15,01,24,3.20
2015,02,15,01,25,3.20
2015,02,15,01,26,3.10
2015,02,15,01,27,3.00
2015,02,15,01,28,2.90
2015,02,15,01,29,2.90
2015,02,15,01,30,2.90
2015,02,15,01,31,2.90
2015,02,15,01,32,2.90
2015,02,15,01,33,3.00
2015,02,15,01,34,3.00
2015,02,15,01,35,3.10
2015,02,15,01,36,3.20
2015,02,15,01,37,3.20
2015,02,15,01,38,3.20
2015,02,15,01,39,3.20
2015,02,15,01,40,3.30
2015,02,15,01,41,3.30
2015,02,15,01,42,3.30
2015,02,15,01,43,3.30
2015,02,15,01,44,3.30
2015,02,15,01,45,3.30
2015,02,15,01,46,3.30
2015,02,15,01,47,3.30
2015,02,15,01,48,3.30
2015,02,15,01,49,3.30
2015,02,15,01,50,3.30
2015,02,15,01,51,3.20
2015,02,15,01,52,3.20
2015,02,15,01,53,3.20
2015,02,15,01,54,3.20
2015,02,15,01,55,3.20
2015,02,15,01,56,3.10
2015,02,15,01,57,3.10
2015,02,15,01,58,3.10
2015,02,15,01,59,3.00
2015,02,15,02,00,3.00
2015,02,15,02,01,2.90
2015,02,15,02,02,2.90
2015,02,15,02,03,2.90
2015,02,15,02,04,2.90
2015,02,15,02,05,2.80
2015,02,15,02,06,2.80
2015,02,15,02,07,2.80
2015,02,15,02,08,2.80
2015,02,15,02,09,2.80
2015,02,15,02,10,2.80
2015,02,15,02,11,2.80
2015,02,15,02,12,2.80
2015,02,15,02,13,2.80
2015,02,15,02,14,2.80
2015,02,15,02,15,2.70
2015,02,15,02,16,2.70
2015,02,15,02,17,2.70
2015,02,15,02,18,2.70
2015,02,15,02,19,2.70
2015,02,15,02,20,2.80
2015,02,15,02,21,2.80
2015,02,15,02,22,2.80
2015,02,15,02,23,2.80
2015,02,15,02,24,2.80
2015,02,15,02,25,2.80
2015,02,15,02,26,2.80
2015,02,15,02,27,2.80
2015,02,15,02,28,2.80
2015,02,15,02,29,2.80
2015,02,15,02,30,2.80
2015,02,15,02,31,2.70
2015,02,15,02,32,2.70
2015,02,15,02,33,2.70
2015,02,15,02,34,2.60
2015,02,15,02,35,2.50
2015,02,15,02,36,2.50
2015,02,15,02,37,2.40
2015,02,15,02,38,2.30
2015,02,15,02,39,2.30
2015,02,15,02,40,2.30
2015,02,15,02,41,2.30
2015,02,15,02,42,2.30
2015,02,15,02,43,2.30
2015,02,15,02,44,2.30
2015,02,15,02,45,2.30
2015,02,15,02,46,2.30
2015,02,15,02,47,2.40
2015,02,15,02,48,2.40
2015,02,15,02,49,2.40
2015,02,15,02,50,2.40
2015,02,15,02,51,2.40
2015,02,15,02,52,2.40
2015,02,15,02,53,2.40
2015,02,15,02,54,2.30
2015,02,15,02,55,2.30
2015,02,15,02,56,2.30
2015,02,15,02,57,2.20
2015,02,15,02,58,2.20
2015,02,15,02,59,2.20
2015,02,15,03,00,2.10
2015,02,15,03,01,2.10
2015,02,15,03,02,2.10
2015,02,15,03,03,2.00
2015,02,15,03,04,2.00
2015,02,15,03,05,2.00
2015,02,15,03,06,2.00
2015,02,15,03,07,2.00
2015,02,15,03,08,2.00
2015,02,15,03,09,1.90
2015,02,15,03,10,1.90
2015,02,15,03,11,1.90
2015,02,15,03,12,1.90
2015,02,15,03,13,1.90
2015,02,15,03,14,1.90
2015,02,15,03,15,1.90
2015,02,15,03,16,1.90
2015,02,15,03,17,1.90
2015,02,15,03,18,1.90
2015,02,15,03,19,1.80
2015,02,15,03,20,1.80
2015,02,15,03,21,1.80
2015,02,15,03,22,1.80
2015,02,15,03,23,1.80
2015,02,15,03,24,1.80
2015,02,15,03,25,1.70
2015,02,15,03,26,1.80
2015,02,15,03,27,1.80
2015,02,15,03,28,1.80
2015,02,15,03,29,1.80
2015,02,15,03,30,1.80
2015,02,15,03,31,1.80
2015,02,15,03,32,1.80
2015,02,15,03,33,1.80
2015,02,15,03,34,1.80
2015,02,15,03,35,1.90
2015,02,15,03,36,1.90
2015,02,15,03,37,1.90
2015,02,15,03,38,1.90
2015,02,15,03,39,1.90
2015,02,15,03,40,1.90
2015,02,15,03,41,1.90
2015,02,15,03,42,1.90
2015,02,15,03,43,1.90
2015,02,15,03,44,1.90
2015,02,15,03,45,1.90
2015,02,15,03,46,1.90
2015,02,15,03,47,2.00
2015,02,15,03,48,2.00
2015,02,15,03,49,2.00
2015,02,15,03,50,2.00
2015,02,15,03,51,1.90
2015,02,15,03,52,1.90
2015,02,15,03,53,1.90
2015,02,15,03,54,1.90
2015,02,15,03,55,1.90
2015,02,15,03,56,1.90
2015,02,15,03,57,1.90
2015,02,15,03,58,1.90
2015,02,15,03,59,1.90
2015,02,15,04,00,1.90
2015,02,15,04,01,1.90
2015,02,15,04,02,1.90
2015,02,15,04,03,1.90
2015,02,15,04,04,1.90
2015,02,15,04,05,1.90
2015,02,15,04,06,1.90
2015,02,15,04,07,1.90
2015,02,15,04,08,1.90
2015,02,15,04,09,1.90
2015,02,15,04,10,1.90
2015,02,15,04,11,1.80
2015,02,15,04,12,1.80
2015,02,15,04,13,1.80
2015,02,15,04,14,1.80
2015,02,15,04,15,1.80
2015,02,15,04,16,1.70
2015,02,15,04,17,1.70
2015,02,15,04,18,1.60
2015,02,15,04,19,1.60
2015,02,15,04,20,1.60
2015,02,15,04,21,1.60
2015,02,15,04,22,1.50
2015,02,15,04,23,1.50
2015,02,15,04,24,1.50
2015,02,15,04,25,1.50
2015,02,15,04,26,1.40
2015,02,15,04,27,1.40
2015,02,15,04,28,1.40
2015,02,15,04,29,1.50
2015,02,15,04,30,1.40
2015,02,15,04,31,1.40
2015,02,15,04,32,1.40
2015,02,15,04,33,1.40
2015,02,15,04,34,1.40
2015,02,15,04,35,1.30
2015,02,15,04,36,1.30
2015,02,15,04,37,1.30
2015,02,15,04,38,1.40
2015,02,15,04,39,1.40
2015,02,15,04,40,1.40
2015,02,15,04,41,1.50
2015,02,15,04,42,1.50
2015,02,15,04,43,1.60
2015,02,15,04,44,1.60
2015,02,15,04,45,1.70
2015,02,15,04,46,1.70
2015,02,15,04,47,1.70
2015,02,15,04,48,1.70
2015,02,15,04,49,1.70
2015,02,15,04,50,1.80
2015,02,15,04,51,1.80
2015,02,15,04,52,1.80
2015,02,15,04,53,1.80
2015,02,15,04,54,1.80
2015,02,15,04,55,1.90
2015,02,15,04,56,1.90
2015,02,15,04,57,1.90
2015,02,15,04,58,1.90
2015,02,15,04,59,1.90
2015,02,15,05,00,2.00
2015,02,15,05,01,2.00
2015,02,15,05,02,2.00
2015,02,15,05,03,2.10
2015,02,15,05,04,2.10
2015,02,15,05,05,2.10
2015,02,15,05,06,2.10
2015,02,15,05,07,2.10
2015,02,15,05,08,2.00
2015,02,15,05,09,2.00
2015,02,15,05,10,2.00
2015,02,15,05,11,2.00
2015,02,15,05,12,2.00
2015,02,15,05,13,2.00
2015,02,15,05,14,2.00
2015,02,15,05,15,2.00
2015,02,15,05,16,2.00
2015,02,15,05,17,1.90
2015,02,15,05,18,1.80
2015,02,15,05,19,1.80
2015,02,15,05,20,1.70
2015,02,15,05,21,1.70
2015,02,15,05,22,1.60
2015,02,15,05,23,1.50
2015,02,15,05,24,1.50
2015,02,15,05,25,1.40
2015,02,15,05,26,1.40
2015,02,15,05,27,1.40
2015,02,15,05,28,1.30
2015,02,15,05,29,1.40
2015,02,15,05,30,1.30
2015,02,15,05,31,1.30
2015,02,15,05,32,1.30
2015,02,15,05,33,1.30
2015,02,15,05,34,1.30
2015,02,15,05,35,1.30
2015,02,15,05,36,1.30
2015,02,15,05,37,1.30
2015,02,15,05,38,1.30
2015,02,15,05,39,1.30
2015,02,15,05,40,1.30
2015,02,15,05,41,1.30
2015,02,15,05,42,1.30
2015,02,15,05,43,1.30
2015,02,15,05,44,1.20
2015,02,15,05,45,1.20
2015,02,15,05,46,1.20
2015,02,15,05,47,1.30
2015,02,15,05,48,1.30
2015,02,15,05,49,1.30
2015,02,15,05,50,1.30
2015,02,15,05,51,1.30
2015,02,15,05,52,1.30
2015,02,15,05,53,1.40
2015,02,15,05,54,1.40
2015,02,15,05,55,1.50
2015,02,15,05,56,1.60
2015,02,15,05,57,1.60
2015,02,15,05,58,1.60
2015,02,15,05,59,1.70
2015,02,15,06,00,1.70
2015,02,15,06,01,1.70
2015,02,15,06,02,1.80
2015,02,15,06,03,1.80
2015,02,15,06,04,1.70
2015,02,15,06,05,1.70
2015,02,15,06,06,1.70
2015,02,15,06,07,1.70
2015,02,15,06,08,1.70
2015,02,15,06,09,1.70
2015,02,15,06,10,1.70
2015,02,15,06,11,1.70
2015,02,15,06,12,1.70
2015,02,15,06,13,1.70
2015,02,15,06,14,1.60
2015,02,15,06,15,1.60
2015,02,15,06,16,1.60
2015,02,15,06,17,1.60
2015,02,15,06,18,1.60
2015,02,15,06,19,1.60
2015,02,15,06,20,1.60
2015,02,15,06,21,1.60
2015,02,15,06,22,1.60
2015,02,15,06,23,1.60
2015,02,15,06,24,1.60
2015,02,15,06,25,1.60
2015,02,15,06,26,1.60
2015,02,15,06,27,1.60
2015,02,15,06,28,1.60
2015,02,15,06,29,1.60
2015,02,15,06,30,1.50
2015,02,15,06,31,1.50
2015,02,15,06,32,1.50
2015,02,15,06,33,1.40
2015,02,15,06,34,1.40
2015,02,15,06,35,1.40
2015,02,15,06,36,1.30
2015,02,15,06,37,1.30
2015,02,15,06,38,1.30
2015,02,15,06,39,1.20
2015,02,15,06,40,1.20
2015,02,15,06,41,1.20
2015,02,15,06,42,1.20
2015,02,15,06,43,1.20
2015,02,15,06,44,1.20
2015,02,15,06,45,1.20
2015,02,15,06,46,1.10
2015,02,15,06,47,1.10
2015,02,15,06,48,1.10
2015,02,15,06,49,1.10
2015,02,15,06,50,1.10
2015,02,15,06,51,1.10
2015,02,15,06,52,1.10
2015,02,15,06,53,1.10
2015,02,15,06,54,1.10
2015,02,15,06,55,1.10
2015,02,15,06,56,1.00
2015,02,15,06,57,1.00
2015,02,15,06,58,1.00
2015,02,15,06,59,1.00
2015,02,15,07,00,1.00
2015,02,15,07,01,1.00
2015,02,15,07,02,1.10
2015,02,15,07,03,1.10
2015,02,15,07,04,1.10
2015,02,15,07,05,1.20
2015,02,15,07,06,1.20
2015,02,15,07,07,1.20
2015,02,15,07,08,1.20
2015,02,15,07,09,1.20
2015,02,15,07,10,1.30
2015,02,15,07,11,1.30
2015,02,15,07,12,1.30
2015,02,15,07,13,1.30
2015,02,15,07,14,1.30
2015,02,15,07,15,1.30
2015,02,15,07,16,1.30
2015,02,15,07,17,1.30
2015,02,15,07,18,1.30
2015,02,15,07,19,1.20
2015,02,15,07,20,1.20
2015,02,15,07,21,1.10
2015,02,15,07,22,1.10
2015,02,15,07,23,1.10
2015,02,15,07,24,1.10
2015,02,15,07,25,1.00
2015,02,15,07,26,1.00
2015,02,15,07,27,1.00
2015,02,15,07,28,1.00
2015,02,15,07,29,0.90
2015,02,15,07,30,0.90
2015,02,15,07,31,0.90
2015,02,15,07,32,0.90
2015,02,15,07,33,0.90
2015,02,15,07,34,0.90
2015,02,15,07,35,0.90
2015,02,15,07,36,0.90
2015,02,15,07,37,1.00
2015,02,15,07,38,1.00
2015,02,15,07,39,1.10
2015,02,15,07,40,1.10
2015,02,15,07,41,1.20
2015,02,15,07,42,1.20
2015,02,15,07,43,1.20
2015,02,15,07,44,1.30
2015,02,15,07,45,1.30
2015,02,15,07,46,1.30
2015,02,15,07,47,1.30
2015,02,15,07,48,1.30
2015,02,15,07,49,1.30
2015,02,15,07,50,1.20
2015,02,15,07,51,1.20
2015,02,15,07,52,1.20
2015,02,15,07,53,1.10
2015,02,15,07,54,1.10
2015,02,15,07,55,1.10
2015,02,15,07,56,1.00
2015,02,15,07,57,1.00
2015,02,15,07,58,0.90
2015,02,15,07,59,0.90
2015,02,15,08,00,0.90
2015,02,15,08,01,0.90
2015,02,15,08,02,0.80
2015,02,15,08,03,0.80
2015,02,15,08,04,0.80
2015,02,15,08,05,0.80
2015,02,15,08,06,0.80
2015,02,15,08,07,0.80
2015,02,15,08,08,0.90
2015,02,15,08,09,0.90
2015,02,15,08,10,1.00
2015,02,15,08,11,1.00
2015,02,15,08,12,1.10
2015,02,15,08,13,1.10
2015,02,15,08,14,1.10
2015,02,15,08,15,1.20
2015,02,15,08,16,1.20
2015,02,15,08,17,1.30
2015,02,15,08,18,1.40
2015,02,15,08,19,1.50
2015,02,15,08,20,1.50
2015,02,15,08,21,1.60
2015,02,15,08,22,1.70
2015,02,15,08,23,1.80
2015,02,15,08,24,1.80
2015,02,15,08,25,1.90
2015,02,15,08,26,1.90
2015,02,15,08,27,1.90
2015,02,15,08,28,1.90
2015,02,15,08,29,1.90
2015,02,15,08,30,1.90
2015,02,15,08,31,2.00
2015,02,15,08,32,2.00
2015,02,15,08,33,2.00
2015,02,15,08,34,2.00
2015,02,15,08,35,2.00
2015,02,15,08,36,2.10
2015,02,15,08,37,2.10
2015,02,15,08,38,2.10
2015,02,15,08,39,2.10
2015,02,15,08,40,2.10
2015,02,15,08,41,2.20
2015,02,15,08,42,2.20
2015,02,15,08,43,2.30
2015,02,15,08,44,2.30
2015,02,15,08,45,2.30
2015,02,15,08,46,2.40
2015,02,15,08,47,2.50
2015,02,15,08,48,2.50
2015,02,15,08,49,2.60
2015,02,15,08,50,2.70
2015,02,15,08,51,2.70
2015,02,15,08,52,2.80
2015,02,15,08,53,2.80
2015,02,15,08,54,2.90
2015,02,15,08,55,3.00
2015,02,15,08,56,3.10
2015,02,15,08,57,3.10
2015,02,15,08,58,3.20
2015,02,15,08,59,3.30
2015,02,15,09,00,3.40
2015,02,15,09,01,3.50
2015,02,15,09,02,3.60
2015,02,15,09,03,3.60
2015,02,15,09,04,3.70
2015,02,15,09,05,3.80
2015,02,15,09,06,3.80
2015,02,15,09,07,3.90
2015,02,15,09,08,4.00
2015,02,15,09,09,4.10
2015,02,15,09,10,4.20
2015,02,15,09,11,4.30
2015,02,15,09,12,4.30
2015,02,15,09,13,4.40
2015,02,15,09,14,4.50
2015,02,15,09,15,4.60
2015,02,15,09,16,4.80
2015,02,15,09,17,4.90
2015,02,15,09,18,5.00
2015,02,15,09,19,5.10
2015,02,15,09,20,5.30
2015,02,15,09,21,5.40
2015,02,15,09,22,5.50
2015,02,15,09,23,5.60
2015,02,15,09,24,5.60
2015,02,15,09,25,5.70
2015,02,15,09,26,5.70
2015,02,15,09,27,5.80
2015,02,15,09,28,5.90
2015,02,15,09,29,6.00
2015,02,15,09,30,6.00
2015,02,15,09,31,6.10
2015,02,15,09,32,6.10
2015,02,15,09,33,6.10
2015,02,15,09,34,6.20
2015,02,15,09,35,6.20
2015,02,15,09,36,6.30
2015,02,15,09,37,6.30
2015,02,15,09,38,6.40
2015,02,15,09,39,6.40
2015,02,15,09,40,6.50
2015,02,15,09,41,6.50
2015,02,15,09,42,6.60
2015,02,15,09,43,6.60
2015,02,15,09,44,6.70
2015,02,15,09,45,6.70
2015,02,15,09,46,6.80
2015,02,15,09,47,6.80
2015,02,15,09,48,6.80
2015,02,15,09,49,6.80
2015,02,15,09,50,6.90
2015,02,15,09,51,6.90
2015,02,15,09,52,7.00
2015,02,15,09,53,7.00
2015,02,15,09,54,7.10
2015,02,15,09,55,7.10
2015,02,15,09,56,7.20
2015,02,15,09,57,7.20
2015,02,15,09,58,7.20
2015,02,15,09,59,7.30
2015,02,15,10,00,7.30
2015,02,15,10,01,7.40
2015,02,15,10,02,7.40
2015,02,15,10,03,7.40
2015,02,15,10,04,7.40
2015,02,15,10,05,7.50
2015,02,15,10,06,7.50
2015,02,15,10,07,7.60
2015,02,15,10,08,7.70
2015,02,15,10,09,7.70
2015,02,15,10,10,7.70
2015,02,15,10,11,7.70
2015,02,15,10,12,7.70
2015,02,15,10,13,7.80
2015,02,15,10,14,7.80
2015,02,15,10,15,7.80
2015,02,15,10,16,7.80
2015,02,15,10,17,7.80
2015,02,15,10,18,7.90
2015,02,15,10,19,7.90
2015,02,15,10,20,7.90
2015,02,15,10,21,8.00
2015,02,15,10,22,8.00
2015,02,15,10,23,8.10
2015,02,15,10,24,8.10
2015,02,15,10,25,8.20
2015,02,15,10,26,8.20
2015,02,15,10,27,8.20
2015,02,15,10,28,8.30
2015,02,15,10,29,8.30
2015,02,15,10,30,8.40
2015,02,15,10,31,8.40
2015,02,15,10,32,8.40
2015,02,15,10,33,8.50
2015,02,15,10,34,8.60
2015,02,15,10,35,8.60
2015,02,15,10,36,8.60
2015,02,15,10,37,8.70
2015,02,15,10,38,8.70
2015,02,15,10,39,8.80
2015,02,15,10,40,8.80
2015,02,15,10,41,8.90
2015,02,15,10,42,8.90
2015,02,15,10,43,8.90
2015,02,15,10,44,8.90
2015,02,15,10,45,8.90
2015,02,15,10,46,8.90
2015,02,15,10,47,9.00
2015,02,15,10,48,9.00
2015,02,15,10,49,9.00
2015,02,15,10,50,9.00
2015,02,15,10,51,8.90
2015,02,15,10,52,8.90
2015,02,15,10,53,8.90
2015,02,15,10,54,9.00
2015,02,15,10,55,9.00
2015,02,15,10,56,9.00
2015,02,15,10,57,9.10
2015,02,15,10,58,9.20
2015,02,15,10,59,9.20
2015,02,15,11,00,9.30
2015,02,15,11,01,9.30
2015,02,15,11,02,9.30
2015,02,15,11,03,9.30
2015,02,15,11,04,9.30
2015,02,15,11,05,9.30
2015,02,15,11,06,9.30
2015,02,15,11,07,9.30
2015,02,15,11,08,9.30
2015,02,15,11,09,9.30
2015,02,15,11,10,9.20
2015,02,15,11,11,9.20
2015,02,15,11,12,9.20
2015,02,15,11,13,9.10
2015,02,15,11,14,9.10
2015,02,15,11,15,9.10
2015,02,15,11,16,9.00
2015,02,15,11,17,9.00
2015,02,15,11,18,8.90
2015,02,15,11,19,8.90
2015,02,15,11,20,8.90
2015,02,15,11,21,8.90
2015,02,15,11,22,9.00
2015,02,15,11,23,9.00
2015,02,15,11,24,9.10
2015,02,15,11,25,9.10
2015,02,15,11,26,9.10
2015,02,15,11,27,9.20
2015,02,15,11,28,9.20
2015,02,15,11,29,9.30
2015,02,15,11,30,9.30
2015,02,15,11,31,9.30
2015,02,15,11,32,9.30
2015,02,15,11,33,9.30
2015,02,15,11,34,9.30
2015,02,15,11,35,9.30
2015,02,15,11,36,9.30
2015,02,15,11,37,9.30
2015,02,15,11,38,9.40
2015,02,15,11,39,9.40
2015,02,15,11,40,9.40
2015,02,15,11,41,9.40
2015,02,15,11,42,9.40
2015,02,15,11,43,9.30
2015,02,15,11,44,9.30
2015,02,15,11,45,9.20
2015,02,15,11,46,9.20
2015,02,15,11,47,9.20
2015,02,15,11,48,9.10
2015,02,15,11,49,9.10
2015,02,15,11,50,9.10
2015,02,15,11,51,9.10
2015,02,15,11,52,9.10
2015,02,15,11,53,9.00
2015,02,15,11,54,9.00
2015,02,15,11,55,9.00
2015,02,15,11,56,9.00
2015,02,15,11,57,9.00
2015,02,15,11,58,9.00
2015,02,15,11,59,9.10
2015,02,15,12,00,9.10
2015,02,15,12,01,9.10
2015,02,15,12,02,9.10
2015,02,15,12,03,9.20
2015,02,15,12,04,9.10
2015,02,15,12,05,9.10
2015,02,15,12,06,9.20
2015,02,15,12,07,9.20
2015,02,15,12,08,9.20
2015,02,15,12,09,9.20
2015,02,15,12,10,9.20
2015,02,15,12,11,9.20
2015,02,15,12,12,9.20
2015,02,15,12,13,9.30
2015,02,15,12,14,9.30
2015,02,15,12,15,9.30
2015,02,15,12,16,9.30
2015,02,15,12,17,9.30
2015,02,15,12,18,9.30
2015,02,15,12,19,9.30
2015,02,15,12,20,9.40
2015,02,15,12,21,9.40
2015,02,15,12,22,9.40
2015,02,15,12,23,9.50
2015,02,15,12,24,9.50
2015,02,15,12,25,9.60
2015,02,15,12,26,9.60
2015,02,15,12,27,9.60
2015,02,15,12,28,9.60
2015,02,15,12,29,9.50
2015,02,15,12,30,9.50
2015,02,15,12,31,9.50
2015,02,15,12,32,9.60
2015,02,15,12,33,9.60
2015,02,15,12,34,9.60
2015,02,15,12,35,9.70
2015,02,15,12,36,9.70
2015,02,15,12,37,9.70
2015,02,15,12,38,9.80
2015,02,15,12,39,9.80
2015,02,15,12,40,9.80
2015,02,15,12,41,9.90
2015,02,15,12,42,10.00
2015,02,15,12,43,10.00
2015,02,15,12,44,10.10
2015,02,15,12,45,10.10
2015,02,15,12,46,10.20
2015,02,15,12,47,10.20
2015,02,15,12,48,10.30
2015,02,15,12,49,10.30
2015,02,15,12,50,10.30
2015,02,15,12,51,10.40
2015,02,15,12,52,10.40
2015,02,15,12,53,10.40
2015,02,15,12,54,10.40
2015,02,15,12,55,10.40
2015,02,15,12,56,10.30
2015,02,15,12,57,10.40
2015,02,15,12,58,10.40
2015,02,15,12,59,10.40
2015,02,15,13,00,10.40
2015,02,15,13,01,10.40
2015,02,15,13,02,10.40
2015,02,15,13,03,10.40
2015,02,15,13,04,10.30
2015,02,15,13,05,10.30
2015,02,15,13,06,10.30
2015,02,15,13,07,10.30
2015,02,15,13,08,10.30
2015,02,15,13,09,10.30
2015,02,15,13,10,10.30
2015,02,15,13,11,10.40
2015,02,15,13,12,10.40
2015,02,15,13,13,10.40
2015,02,15,13,14,10.40
2015,02,15,13,15,10.40
2015,02,15,13,16,10.30
2015,02,15,13,17,10.30
2015,02,15,13,18,10.30
2015,02,15,13,19,10.30
2015,02,15,13,20,10.30
2015,02,15,13,21,10.40
2015,02,15,13,22,10.40
2015,02,15,13,23,10.30
2015,02,15,13,24,10.30
2015,02,15,13,25,10.30
2015,02,15,13,26,10.30
2015,02,15,13,27,10.20
2015,02,15,13,28,10.20
2015,02,15,13,29,10.20
2015,02,15,13,30,10.20
2015,02,15,13,31,10.20
2015,02,15,13,32,10.20
2015,02,15,13,33,10.20
2015,02,15,13,34,10.20
2015,02,15,13,35,10.30
2015,02,15,13,36,10.20
2015,02,15,13,37,10.20
2015,02,15,13,38,10.20
2015,02,15,13,39,10.20
2015,02,15,13,40,10.20
2015,02,15,13,41,10.20
2015,02,15,13,42,10.10
2015,02,15,13,43,10.10
2015,02,15,13,44,10.10
2015,02,15,13,45,10.10
2015,02,15,13,46,10.10
2015,02,15,13,47,10.00
2015,02,15,13,48,10.00
2015,02,15,13,49,9.90
2015,02,15,13,50,9.90
2015,02,15,13,51,9.90
2015,02,15,13,52,9.80
2015,02,15,13,53,9.80
2015,02,15,13,54,9.80
2015,02,15,13,55,9.80
2015,02,15,13,56,9.80
2015,02,15,13,57,9.80
2015,02,15,13,58,9.70
2015,02,15,13,59,9.70
2015,02,15,14,00,9.70
2015,02,15,14,01,9.70
2015,02,15,14,02,9.70
2015,02,15,14,03,9.60
2015,02,15,14,04,9.60
2015,02,15,14,05,9.60
2015,02,15,14,06,9.70
2015,02,15,14,07,9.60
2015,02,15,14,08,9.60
2015,02,15,14,09,9.60
2015,02,15,14,10,9.60
2015,02,15,14,11,9.60
2015,02,15,14,12,9.60
2015,02,15,14,13,9.60
2015,02,15,14,14,9.50
2015,02,15,14,15,9.50
2015,02,15,14,16,9.50
2015,02,15,14,17,9.40
2015,02,15,14,18,9.40
2015,02,15,14,19,9.30
2015,02,15,14,20,9.30
2015,02,15,14,21,9.20
2015,02,15,14,22,9.20
2015,02,15,14,23,9.10
2015,02,15,14,24,9.10
2015,02,15,14,25,9.10
2015,02,15,14,26,9.10
2015,02,15,14,27,9.00
2015,02,15,14,28,9.00
2015,02,15,14,29,8.90
2015,02,15,14,30,8.90
2015,02,15,14,31,8.90
2015,02,15,14,32,8.80
2015,02,15,14,33,8.80
2015,02,15,14,34,8.70
2015,02,15,14,35,8.70
2015,02,15,14,36,8.70
2015,02,15,14,37,8.70
2015,02,15,14,38,8.60
2015,02,15,14,39,8.60
2015,02,15,14,40,8.60
2015,02,15,14,41,8.60
2015,02,15,14,42,8.60
2015,02,15,14,43,8.60
2015,02,15,14,44,8.60
2015,02,15,14,45,8.60
2015,02,15,14,46,8.60
2015,02,15,14,47,8.60
2015,02,15,14,48,8.50
2015,02,15,14,49,8.50
2015,02,15,14,50,8.50
2015,02,15,14,51,8.50
2015,02,15,14,52,8.50
2015,02,15,14,53,8.50
2015,02,15,14,54,8.40
2015,02,15,14,55,8.40
2015,02,15,14,56,8.40
2015,02,15,14,57,8.40
2015,02,15,14,58,8.40
2015,02,15,14,59,8.40
2015,02,15,15,00,8.40
2015,02,15,15,01,8.40
2015,02,15,15,02,8.30
2015,02,15,15,03,8.30
2015,02,15,15,04,8.30
2015,02,15,15,05,8.30
2015,02,15,15,06,8.30
2015,02,15,15,07,8.30
2015,02,15,15,08,8.20
2015,02,15,15,09,8.20
2015,02,15,15,10,8.20
2015,02,15,15,11,8.20
2015,02,15,15,12,8.20
2015,02,15,15,13,8.20
2015,02,15,15,14,8.20
2015,02,15,15,15,8.20
2015,02,15,15,16,8.20
2015,02,15,15,17,8.10
2015,02,15,15,18,8.10
2015,02,15,15,19,8.10
2015,02,15,15,20,8.10
2015,02,15,15,21,8.10
2015,02,15,15,22,8.10
2015,02,15,15,23,8.10
2015,02,15,15,24,8.10
2015,02,15,15,25,8.10
2015,02,15,15,26,8.10
2015,02,15,15,27,8.10
2015,02,15,15,28,8.00
2015,02,15,15,29,8.00
2015,02,15,15,30,8.00
2015,02,15,15,31,8.00
2015,02,15,15,32,8.00
2015,02,15,15,33,8.00
2015,02,15,15,34,7.90
2015,02,15,15,35,7.90
2015,02,15,15,36,7.90
2015,02,15,15,37,7.90
2015,02,15,15,38,7.90
2015,02,15,15,39,7.90
2015,02,15,15,40,7.90
2015,02,15,15,41,7.90
2015,02,15,15,42,7.90
2015,02,15,15,43,7.90
2015,02,15,15,44,7.90
2015,02,15,15,45,7.90
2015,02,15,15,46,7.90
2015,02,15,15,47,7.90
2015,02,15,15,48,7.90
2015,02,15,15,49,7.90
2015,02,15,15,50,7.90
2015,02,15,15,51,7.90
2015,02,15,15,52,7.90
2015,02,15,15,53,7.90
2015,02,15,15,54,7.90
2015,02,15,15,55,7.90
2015,02,15,15,56,7.90
2015,02,15,15,57,7.90
2015,02,15,15,58,7.90
2015,02,15,15,59,7.90
2015,02,15,16,00,7.90
2015,02,15,16,01,7.90
2015,02,15,16,02,7.90
2015,02,15,16,03,7.80
2015,02,15,16,04,7.80
2015,02,15,16,05,7.80
2015,02,15,16,06,7.80
2015,02,15,16,07,7.80
2015,02,15,16,08,7.80
2015,02,15,16,09,7.80
2015,02,15,16,10,7.80
2015,02,15,16,11,7.80
2015,02,15,16,12,7.80
2015,02,15,16,13,7.80
2015,02,15,16,14,7.80
2015,02,15,16,15,7.80
2015,02,15,16,16,7.80
2015,02,15,16,17,7.80
2015,02,15,16,18,7.80
2015,02,15,16,19,7.80
2015,02,15,16,20,7.80
2015,02,15,16,21,7.70
2015,02,15,16,22,7.70
2015,02,15,16,23,7.70
2015,02,15,16,24,7.70
2015,02,15,16,25,7.70
2015,02,15,16,26,7.70
2015,02,15,16,27,7.70
2015,02,15,16,28,7.70
2015,02,15,16,29,7.70
2015,02,15,16,30,7.70
2015,02,15,16,31,7.70
2015,02,15,16,32,7.70
2015,02,15,16,33,7.70
2015,02,15,16,34,7.70
2015,02,15,16,35,7.70
2015,02,15,16,36,7.70
2015,02,15,16,37,7.60
2015,02,15,16,38,7.60
2015,02,15,16,39,7.60
2015,02,15,16,40,7.60
2015,02,15,16,41,7.60
2015,02,15,16,42,7.60
2015,02,15,16,43,7.60
2015,02,15,16,44,7.60
2015,02,15,16,45,7.60
2015,02,15,16,46,7.60
2015,02,15,16,47,7.50
2015,02,15,16,48,7.50
2015,02,15,16,49,7.50
2015,02,15,16,50,7.50
2015,02,15,16,51,7.50
2015,02,15,16,52,7.40
2015,02,15,16,53,7.40
2015,02,15,16,54,7.40
2015,02,15,16,55,7.40
2015,02,15,16,56,7.40
2015,02,15,16,57,7.40
2015,02,15,16,58,7.40
2015,02,15,16,59,7.30
2015,02,15,17,00,7.30
2015,02,15,17,01,7.30
2015,02,15,17,02,7.30
2015,02,15,17,03,7.30
2015,02,15,17,04,7.30
2015,02,15,17,05,7.30
2015,02,15,17,06,7.20
2015,02,15,17,07,7.20
2015,02,15,17,08,7.20
2015,02,15,17,09,7.20
2015,02,15,17,10,7.20
2015,02,15,17,11,7.20
2015,02,15,17,12,7.20
2015,02,15,17,13,7.20
2015,02,15,17,14,7.20
2015,02,15,17,15,7.20
2015,02,15,17,16,7.20
2015,02,15,17,17,7.20
2015,02,15,17,18,7.20
2015,02,15,17,19,7.20
2015,02,15,17,20,7.20
2015,02,15,17,21,7.20
2015,02,15,17,22,7.20
2015,02,15,17,23,7.20
2015,02,15,17,24,7.20
2015,02,15,17,25,7.20
2015,02,15,17,26,7.20
2015,02,15,17,27,7.20
2015,02,15,17,28,7.20
2015,02,15,17,29,7.20
2015,02,15,17,30,7.20
2015,02,15,17,31,7.20
2015,02,15,17,32,7.20
2015,02,15,17,33,7.20
2015,02,15,17,34,7.10
2015,02,15,17,35,7.10
2015,02,15,17,36,7.10
2015,02,15,17,37,7.10
2015,02,15,17,38,7.10
2015,02,15,17,39,7.10
2015,02,15,17,40,7.00
2015,02,15,17,41,7.00
2015,02,15,17,42,7.00
2015,02,15,17,43,6.90
2015,02,15,17,44,6.90
2015,02,15,17,45,6.90
2015,02,15,17,46,6.80
2015,02,15,17,47,6.80
2015,02,15,17,48,6.70
2015,02,15,17,49,6.70
2015,02,15,17,50,6.60
2015,02,15,17,51,6.60
2015,02,15,17,52,6.50
2015,02,15,17,53,6.50
2015,02,15,17,54,6.50
2015,02,15,17,55,6.40
2015,02,15,17,56,6.40
2015,02,15,17,57,6.40
2015,02,15,17,58,6.30
2015,02,15,17,59,6.30
2015,02,15,18,00,6.20
2015,02,15,18,01,6.20
2015,02,15,18,02,6.10
2015,02,15,18,03,6.10